This demonstration page uses our WeatherBlox Daily Observations layout. Learn more.

Left ArrowRight Arrow

39.01783, -85.05884

Hourly Observations for March 5, 2017

Temp ( °F °C ) Dew Point ( °F °C ) Humidity (%) Winds ( mph kmh ) Pressure ( in mb ) Visibility ( mi km ) Precip ( " mm )
12:52 am 00:52 Clear 33 0.6 21 -6.1 61 61 ESE 8 13 30.48 1032 10 16 0.00 0.00
1:52 am 01:52 Clear 33 0.6 21 -6.1 61 61 E 8 13 30.48 1032 10 16 0.00 0.00
2:52 am 02:52 Clear 32 0 21 -6.1 64 64 E 10 17 30.46 1032 10 16 0.00 0.00
3:52 am 03:52 Clear 31 -0.6 21 -6.1 67 67 E 7 11 30.46 1031 10 16 0.00 0.00
4:52 am 04:52 Clear 31 -0.6 20 -6.7 64 64 ESE 7 11 30.45 1031 10 16 0.00 0.00
5:52 am 05:52 Clear 31 -0.6 20 -6.7 64 64 ESE 7 11 30.45 1031 10 16 0.00 0.00
6:52 am 06:52 Clear 31 -0.6 20 -6.7 64 64 ESE 7 11 30.45 1031 10 16 0.00 0.00
7:52 am 07:52 Mostly Sunny 32 0 21 -6.1 64 64 SE 8 13 30.45 1031 10 16 0.00 0.00
8:52 am 08:52 Sunny 36 2.2 22 -5.6 57 57 SE 10 17 30.45 1031 10 16 0.00 0.00
9:52 am 09:52 Sunny 42 5.6 25 -3.9 51 51 SE 10 17 30.44 1031 10 16 0.00 0.00
10:52 am 10:52 Mostly Sunny 48 8.9 27 -2.8 44 44 SSE 8 13 30.42 1030 10 16 0.00 0.00
11:52 am 11:52 Partly Cloudy 54 12.2 30 -1.1 40 40 S 8 13 30.40 1029 10 16 0.00 0.00
12:52 pm 12:52 Partly Cloudy 60 15.6 30 -1.1 32 32 S 12 19 30.35 1028 10 16 0.00 0.00
1:52 pm 13:52 Mostly Cloudy 62 16.7 28 -2.2 28 28 SSW 10 17 30.31 1026 10 16 0.00 0.00
2:52 pm 14:52 Mostly Cloudy 65 18.3 25 -3.9 22 22 SSW 18 30 30.28 1025 10 16 0.00 0.00
3:52 pm 15:52 Mostly Cloudy 65 18.3 26 -3.3 23 23 SSW 14 22 30.26 1025 10 16 0.00 0.00
4:52 pm 16:52 Partly Cloudy 65 18.3 27 -2.8 24 24 S 13 20 30.24 1024 10 16 0.00 0.00
5:52 pm 17:52 Mostly Cloudy 63 17.2 28 -2.2 27 27 SSW 7 11 30.24 1024 10 16 0.00 0.00
6:52 pm 18:52 Mostly Cloudy 60 15.6 28 -2.2 30 30 SSW 12 19 30.25 1024 10 16 0.00 0.00
7:52 pm 19:52 Mostly Cloudy 60 15.6 27 -2.8 28 28 SSW 13 20 30.26 1025 10 16 0.00 0.00
8:52 pm 20:52 Mostly Cloudy 57 13.9 27 -2.8 32 32 SSW 7 11 30.25 1025 10 16 0.00 0.00
9:52 pm 21:52 Cloudy 54 12.2 30 -1.1 40 40 S 6 9 30.26 1025 10 16 0.00 0.00
10:52 pm 22:52 Cloudy 58 14.4 29 -1.7 33 33 SW 9 15 30.26 1025 10 16 0.00 0.00
11:52 pm 23:52 Cloudy 57 13.9 34 1.1 42 42 SW 12 19 30.24 1024 10 16 0.00 0.00

Powered by AerisWeather